[[{"header":{"parameterUnit":"m.s-1","parameterCategory":1,"la1":30.2991,"la2":30.254,"lo1":-89.0895,"lo2":-89.0444,"dy":0.0017,"dx":0.0017,"nx":28,"ny":28,"refTime":"2023-10-14T09:00:00:Z","depth":0,"parameterNumber":2,"parameterNumberName":"U-component_of_WINDS"},"data":[0,0,0,0,0,0,0,0,0,0,0,0,0,0,0,0,0,0,0,0,0,0,0,0,0,0,0,0,0,0,0,0,0,0,0,0,0,0,0,0,0,0,0,0,0,0,0,0,0,0,0,0,0,0,0,0,0,0,2.837,2.837,0,2.8387,2.8387,2.8387,2.8354,2.8353,2.8352,2.8351,2.8368,2.8369,2.8371,0,0,0,0,0,0,0,0,0,0,0,0,0,2.8309,2.8311,2.837,2.837,2.837,2.8387,2.8387,2.8387,2.8355,2.8353,2.8352,2.8351,2.8367,2.8369,2.8371,0,0,0,0,0,0,0,0,0,0,0,0,0,2.8332,2.8311,2.837,2.8356,2.8355,2.8387,2.8387,2.8388,2.8355,2.8353,2.8352,2.835,2.8367,2.8369,2.8371,2.8417,0,0,2.8378,2.8379,0,0,0,0,0,0,0,0,2.8331,2.8334,2.8358,2.8357,2.8356,2.8367,2.8372,2.8397,2.8355,2.8355,2.8351,2.8349,2.8369,2.8371,2.8378,2.8418,2.8419,2.8378,2.8379,2.838,2.8381,0,0,0,0,0,0,0,2.8329,2.8333,2.8377,2.8358,2.8357,2.8349,2.8351,2.8377,2.8371,2.8355,2.8352,2.8355,2.8368,2.8376,2.8378,2.8419,2.8378,2.838,2.8381,2.8382,2.85,2.8501,0,0,0,0,0,0,2.8329,2.8332,2.8376,2.8377,2.8339,2.8352,2.8353,2.8365,2.837,2.837,2.8356,2.8353,2.8373,2.8375,2.8378,2.8433,2.838,2.8382,2.8384,2.8498,2.85,2.8502,0,0,0,0,0,0,2.8328,2.8334,2.8375,2.8354,2.8359,2.8354,2.8368,2.8366,2.8374,2.8372,2.837,2.8365,2.8371,2.8375,2.8408,2.8433,2.8383,2.8385,2.8496,2.8498,2.8501,2.8543,0,0,0,0,0,0,2.8327,2.8333,2.8351,2.8355,2.836,2.8405,2.837,2.8368,2.8378,2.8374,2.8379,2.8379,2.837,2.8405,2.841,2.8435,2.8387,2.8493,2.8497,2.85,2.8539,2.8547,2.8553,0,0,0,0,0,2.8325,2.8361,2.8352,2.8357,2.8382,2.8407,2.841,2.8399,2.838,2.8397,2.8396,2.8379,2.843,2.8409,2.8414,2.844,2.8492,2.8496,2.85,2.8536,2.8545,2.8553,0,0,0,0,0,0,2.8359,2.8361,2.8351,2.839,2.8399,2.8401,2.8422,2.8409,2.8423,2.8419,2.8406,2.8407,2.8443,2.8445,2.8422,2.8486,2.8457,2.8463,2.8483,2.8492,2.8499,2.8497,2.8389,0,0,0,0,0,2.8372,2.8392,2.8393,2.8427,2.8432,2.8427,2.8437,2.8429,2.8437,2.844,2.8441,2.845,2.8468,2.848,2.8497,2.854,2.8541,2.8561,2.8568,2.8573,2.8578,2.8602,2.8611,2.8515,2.8515,2.8515,0,0,2.8397,2.8401,2.8414,2.8434,2.844,2.8461,2.843,2.8453,2.8469,2.8444,2.8475,2.8477,2.8485,2.8524,2.8541,2.8527,2.8605,2.8579,2.8583,2.8585,2.8607,2.8616,2.8624,2.8518,2.8518,2.8517,0,0,2.8454,2.8459,2.8489,2.8496,2.8505,2.8501,2.8509,2.8514,2.8514,2.8545,2.8527,2.8546,2.8577,2.8584,2.8592,2.8655,2.8639,2.8661,2.8696,2.872,2.8727,2.8734,2.8757,2.8765,2.8665,2.8665,2.8665,0,2.8484,2.8516,2.8506,2.8531,2.8541,2.852,2.855,2.8557,2.8571,2.8578,2.8562,2.8602,2.8606,2.8647,2.8662,2.8669,2.8678,2.8659,2.8727,2.8734,2.874,2.8761,2.877,2.8668,2.8668,2.8667,2.8667,0,2.8553,2.8575,2.8598,2.8613,2.8626,2.8654,2.8648,2.8662,2.8653,2.8651,2.8685,2.8689,2.8707,2.8716,2.8707,2.8756,2.8747,2.8729,2.87,2.8752,2.8772,2.878,2.8671,2.8671,2.867,2.8669,0,0,2.8631,2.8641,2.865,2.8657,2.8667,2.8684,2.8711,2.8729,2.8741,2.8752,2.8775,2.8803,2.8788,2.8797,2.8789,2.881,2.886,2.879,2.879,2.8803,2.8914,2.8927,2.8937,2.885,2.8852,2.8853,2.8914,0,2.8688,2.8735,2.8727,2.8773,2.8794,2.8776,2.8799,2.8808,2.8808,2.8826,2.8826,2.8846,2.8824,2.8829,2.8849,2.8849,2.8882,2.8845,2.8871,2.8872,2.8869,2.8947,2.896,2.9017,2.8921,2.8923,2.8923,0,2.876,2.8775,2.8823,2.8831,2.8839,2.8861,2.8877,2.8895,2.8905,2.8903,2.8914,2.8903,2.8931,2.8903,2.8941,2.8916,2.8927,2.8929,2.8931,2.8933,2.89,2.895,2.9035,2.9044,2.8936,2.8935,2.8934,0,2.8812,2.8844,2.8877,2.8884,2.8894,2.8909,2.8914,2.8923,2.8935,2.8949,2.8957,2.8974,2.8984,2.8998,2.8992,2.8972,2.9032,2.9003,2.9032,2.9032,2.9045,2.9044,2.9132,2.9052,2.9052,2.9052,2.9052,0,2.8876,2.8906,2.8901,2.8921,2.8955,2.8947,2.898,2.8983,2.8991,2.9012,2.8997,2.9017,2.9008,2.9028,2.9024,2.9057,2.9061,2.9061,2.9059,2.9062,2.9062,2.9068,2.9064,2.9054,2.9054,2.9053,2.9053,0,2.894,2.8937,2.8972,2.8979,2.8982,2.9006,2.9013,2.9032,2.9031,2.9058,2.9064,2.9063,2.9085,2.9082,2.9106,2.9103,2.9145,2.9138,2.9141,2.914,2.9169,2.9166,2.9264,2.9276,2.9189,2.919,2.919,0,2.898,2.9003,2.9013,2.9027,2.9033,2.9054,2.9066,2.906,2.9073,2.9087,2.9105,2.9127,2.9143,2.918,2.9182,2.9201,2.9195,2.9228,2.9197,2.92,2.9195,2.9194,2.9196,2.9233,2.9234,2.9235,2.9236,0,2.9053,2.9051,2.907,2.9088,2.9104,2.9118,2.913,2.9142,2.9136,2.9153,2.9176,2.9189,2.9215,2.9236,2.9254,2.9259,2.9247,2.9246,2.9253,2.9256,2.9257,2.9257,2.9157,2.9243,2.9242,2.9242,2.9241,2.9241,2.9106,2.9126,2.9137,2.9158,2.9168,2.918,2.9199,2.9202,2.9221,2.9242,2.9237,2.9263,2.9274,2.9297,2.9305,2.9326,2.9313,2.9324,2.9327,2.933,2.9334,2.9254,2.9329,2.9329,2.9329,2.9328,2.9328,0,2.9178,2.9185,2.9205,2.9224,2.9241,2.9228,2.9242,2.9257,2.9281,2.9292,2.931,2.9337,2.9358,2.9362,2.9383,2.9399,2.9394,2.9404,2.9403,2.9404,2.9343,2.9335,2.9408,2.9408,2.9408,2.9408,2.9408,2.9408,2.9218,2.9251,2.9251,2.9289,2.9296,2.9322,2.9331,2.9343,2.9352,2.9383,2.9401,2.9404,2.9413,2.9434,2.9453,2.9454,2.9462,2.9475,2.9474,2.9416,2.9408,2.9401,2.9392,2.9477,2.9477,2.9533,2.9533,2.9534]},{"header":{"parameterUnit":"m.s-1","parameterCategory":1,"la1":30.2991,"la2":30.254,"lo1":-89.0895,"lo2":-89.0444,"dy":0.0017,"dx":0.0017,"nx":28,"ny":28,"refTime":"2023-10-14T09:00:00:Z","depth":0,"parameterNumber":3,"parameterNumberName":"V-component_of_WINDS"},"data":[0,0,0,0,0,0,0,0,0,0,0,0,0,0,0,0,0,0,0,0,0,0,0,0,0,0,0,0,0,0,0,0,0,0,0,0,0,0,0,0,0,0,0,0,0,0,0,0,0,0,0,0,0,0,0,0,0,0,-8.1884,-8.1886,0,-8.2058,-8.206,-8.2062,-8.2014,-8.2011,-8.2007,-8.2004,-8.2175,-8.2183,-8.219,0,0,0,0,0,0,0,0,0,0,0,0,0,-8.1505,-8.1512,-8.1884,-8.1886,-8.1889,-8.2058,-8.206,-8.2063,-8.2015,-8.2011,-8.2007,-8.2003,-8.2172,-8.2182,-8.2191,0,0,0,0,0,0,0,0,0,0,0,0,0,-8.1673,-8.1514,-8.1884,-8.1885,-8.1887,-8.2057,-8.206,-8.2063,-8.2016,-8.2011,-8.2005,-8.2001,-8.2169,-8.2181,-8.2192,-8.2369,0,0,-8.2228,-8.2233,0,0,0,0,0,0,0,0,-8.1664,-8.1687,-8.1883,-8.1886,-8.1888,-8.2009,-8.1989,-8.2166,-8.2017,-8.1967,-8.2004,-8.1998,-8.2124,-8.2139,-8.2183,-8.2377,-8.2384,-8.2229,-8.2236,-8.2241,-8.2244,0,0,0,0,0,0,0,-8.1652,-8.1679,-8.1953,-8.1886,-8.1889,-8.1875,-8.1894,-8.2022,-8.2072,-8.1971,-8.1968,-8.1989,-8.2124,-8.2171,-8.2186,-8.2387,-8.2229,-8.2239,-8.2246,-8.2251,-8.2736,-8.2742,0,0,0,0,0,0,-8.1639,-8.167,-8.1947,-8.1958,-8.1761,-8.1887,-8.1907,-8.1976,-8.2071,-8.208,-8.1994,-8.1987,-8.2154,-8.2173,-8.2192,-8.2406,-8.2241,-8.2252,-8.2259,-8.273,-8.2737,-8.2744,0,0,0,0,0,0,-8.1631,-8.1665,-8.194,-8.1813,-8.1847,-8.1899,-8.1976,-8.1982,-8.2029,-8.2088,-8.2096,-8.2034,-8.2151,-8.2176,-8.2326,-8.2411,-8.2257,-8.2268,-8.2723,-8.2732,-8.274,-8.2835,0,0,0,0,0,0,-8.1621,-8.1662,-8.1731,-8.1815,-8.1854,-8.2074,-8.1982,-8.1989,-8.2051,-8.2043,-8.2128,-8.2137,-8.2148,-8.2309,-8.2338,-8.2425,-8.2277,-8.2716,-8.2727,-8.2738,-8.2825,-8.2846,-8.2865,0,0,0,0,0,-8.1607,-8.1749,-8.1735,-8.1769,-8.1942,-8.2079,-8.2101,-8.2114,-8.2058,-8.2127,-8.2165,-8.2134,-8.2398,-8.2325,-8.2357,-8.2449,-8.271,-8.2724,-8.2737,-8.2816,-8.2842,-8.2864,0,0,0,0,0,0,-8.1671,-8.176,-8.1745,-8.1919,-8.1992,-8.207,-8.2158,-8.2141,-8.2229,-8.2218,-8.2228,-8.2247,-8.2402,-8.244,-8.2357,-8.2625,-8.2546,-8.2566,-8.2595,-8.262,-8.264,-8.2627,-8.2287,0,0,0,0,0,-8.1705,-8.1811,-8.1882,-8.2028,-8.2066,-8.2106,-8.2166,-8.217,-8.2245,-8.2274,-8.2323,-8.2395,-8.2494,-8.2559,-8.2653,-8.283,-8.2848,-8.2909,-8.2929,-8.2945,-8.2962,-8.3059,-8.3087,-8.2787,-8.2787,-8.2787,0,0,-8.1777,-8.1839,-8.1904,-8.2043,-8.21,-8.2207,-8.2132,-8.2248,-8.2328,-8.2291,-8.2438,-8.2476,-8.2557,-8.2722,-8.2796,-8.2758,-8.3049,-8.2962,-8.2974,-8.2983,-8.3075,-8.3104,-8.3129,-8.2796,-8.2794,-8.2793,0,0,-8.1963,-8.202,-8.2149,-8.2209,-8.2297,-8.2323,-8.2354,-8.2436,-8.2461,-8.2608,-8.2584,-8.2677,-8.2847,-8.2906,-8.2959,-8.3169,-8.3144,-8.3199,-8.3303,-8.3397,-8.3421,-8.3442,-8.3517,-8.3544,-8.3216,-8.3216,-8.3216,0,-8.204,-8.2203,-8.2217,-8.2337,-8.2398,-8.2373,-8.2503,-8.2559,-8.2672,-8.2715,-8.2671,-8.2885,-8.2938,-8.3116,-8.3168,-8.3211,-8.3246,-8.3189,-8.3417,-8.3438,-8.3458,-8.3529,-8.3557,-8.3222,-8.3222,-8.3221,-8.322,0,-8.2294,-8.2407,-8.25,-8.2614,-8.2686,-8.281,-8.2841,-8.2912,-8.291,-8.294,-8.309,-8.3152,-8.326,-8.3302,-8.33,-8.3481,-8.3455,-8.3414,-8.3334,-8.3492,-8.356,-8.3587,-8.3231,-8.3229,-8.3227,-8.3226,0,0,-8.2523,-8.2645,-8.2679,-8.2731,-8.2827,-8.2914,-8.3036,-8.3144,-8.3204,-8.3284,-8.3386,-8.3532,-8.3495,-8.3555,-8.3559,-8.3642,-8.3805,-8.3591,-8.3593,-8.3629,-8.4008,-8.4038,-8.407,-8.3789,-8.3794,-8.3799,-8.4001,0,-8.2718,-8.2936,-8.2953,-8.3149,-8.3254,-8.3232,-8.3339,-8.3409,-8.344,-8.3532,-8.3565,-8.3669,-8.3613,-8.3649,-8.373,-8.3768,-8.3881,-8.3753,-8.3883,-8.3887,-8.3864,-8.4105,-8.4138,-8.4326,-8.4028,-8.4032,-8.4036,0,-8.2973,-8.3064,-8.3272,-8.3355,-8.3399,-8.3495,-8.3596,-8.3684,-8.3762,-8.3779,-8.3847,-8.3841,-8.3965,-8.3881,-8.4052,-8.3965,-8.4019,-8.4045,-8.4053,-8.4065,-8.3971,-8.4124,-8.4386,-8.4415,-8.4077,-8.4074,-8.4071,0,-8.3121,-8.3294,-8.3441,-8.3486,-8.3586,-8.3654,-8.3699,-8.3772,-8.3836,-8.3923,-8.3964,-8.4064,-8.4118,-8.4194,-8.4214,-8.4151,-8.4385,-8.4302,-8.4401,-8.4401,-8.4451,-8.4447,-8.4725,-8.4486,-8.4485,-8.4485,-8.4484,0,-8.3336,-8.3464,-8.3509,-8.3599,-8.3742,-8.3759,-8.3899,-8.3938,-8.4005,-8.4101,-8.4087,-8.4177,-8.4198,-8.4292,-8.4308,-8.4447,-8.4472,-8.4488,-8.4491,-8.449,-8.4488,-8.4525,-8.4512,-8.4492,-8.4491,-8.4489,-8.4488,0,-8.3524,-8.356,-8.3719,-8.3802,-8.3825,-8.3927,-8.3997,-8.4083,-8.4113,-8.4235,-8.4265,-8.4312,-8.4422,-8.445,-8.458,-8.4591,-8.4755,-8.4745,-8.473,-8.4729,-8.4827,-8.4817,-8.5138,-8.5181,-8.4913,-8.4916,-8.4918,0,-8.3659,-8.3758,-8.3852,-8.3918,-8.3966,-8.4071,-8.4137,-8.4157,-8.4226,-8.4324,-8.4398,-8.4507,-8.4596,-8.4772,-8.4816,-8.4916,-8.4908,-8.5014,-8.4923,-8.4919,-8.491,-8.4904,-8.4914,-8.5031,-8.5034,-8.5036,-8.5038,0,-8.3896,-8.3909,-8.4006,-8.4111,-8.4191,-8.4273,-8.4351,-8.4404,-8.4436,-8.4513,-8.4628,-8.4697,-8.4832,-8.494,-8.5041,-8.5084,-8.5067,-8.5067,-8.5095,-8.5095,-8.5082,-8.509,-8.4777,-8.5059,-8.5057,-8.5055,-8.5054,-8.5053,-8.4062,-8.4149,-8.423,-8.4338,-8.44,-8.4475,-8.456,-8.4602,-8.4699,-8.4812,-8.4818,-8.4942,-8.5017,-8.5152,-8.5201,-8.5297,-8.5265,-8.5305,-8.5316,-8.5325,-8.5334,-8.5067,-8.5315,-8.5315,-8.5314,-8.5314,-8.5313,0,-8.4298,-8.4349,-8.445,-8.4561,-8.4647,-8.4626,-8.4712,-8.4784,-8.4895,-8.4968,-8.5056,-8.5187,-8.5293,-8.5346,-8.545,-8.5517,-8.5511,-8.5543,-8.5538,-8.5549,-8.5357,-8.5323,-8.5546,-8.5546,-8.5546,-8.5546,-8.5546,-8.5546,-8.4431,-8.4577,-8.46,-8.4776,-8.4826,-8.495,-8.5001,-8.5069,-8.5128,-8.5276,-8.5365,-8.54,-8.5465,-8.5574,-8.5669,-8.5682,-8.5721,-8.5757,-8.5766,-8.5586,-8.5562,-8.5539,-8.5507,-8.5765,-8.5766,-8.5949,-8.5951,-8.5952]}]]